STARLINK-31904, 59657

Orbit data source: Space-Track

STARLINK-31904, 59657 is a payload satellite owned by SpaceX/Seattle (US) in LEO that was launched on Mon, 06 May 2024 UTC via an FALCON 9 launch vehicle from the Air Force Eastern Test Range (AFETR). Payload-class satellites include a variety of spacecraft equipped with specific instruments for various scientific and technological missions. These include communications satellites like Starlink; space stations such as the ISS; scientific satellites like the Hubble; Earth observation satellites from companies like Planet Labs, Umbra, and HawkEye 360; GPS; miniature CubeSats for education and research; and military/defense satellites.

Loading next visibility...
Identifier
59657, 2024-084D
Orbit
LEO
Country
Flag of USUS
Related business
Manufacturer
SpaceX/Seattle
Mission
Operational Commercial Communications
Bus & Motor
STARLINK V2M, Unknown motor
Mass
730 kg wet, ~700 kg dry
Launch date (UTC)
2024-05-06 (2 years ago)
Launch vehicle
FALCON 9
Launch site
Air Force Eastern Test Range (AFETR)
Object type
Payload
Rocket body
Debris
Shape & HBR
Box + 2 Pan, 17.7 m
Radar Cross Section
33.884 m², Large (>1 m²)

Expand to show TLE details & history
Last TLE update: 3 days ago

TLE from 3 days ago
0 STARLINK-31904
1 59657U 24084D   26170.04701930 -.00000034  00000-0  82880-5 0  9999
2 59657  43.0025 189.4587 0001302 274.1465  85.9238 15.27576226119879
Epoch: 2026-06-19T01:07Z
TLE epoch observation values (Epoch: 2026-06-19T01:07:42.467Z)
Latitude
-0.00001°
Longitude
-94.74987°
Altitude
482.773 km
Speed
7.626 km/s
True Right ascension
12h 37m 50s
True Declination
0° 00' 00"
Sunlit
Object was in daylight at epoch
Visualization orbit readout
Latitude
Unknown
Longitude
Unknown
Altitude
Unknown
Speed
Unknown
Apparent Right ascension
Unknown
Apparent Declination
Unknown
Sunlit
N/A
Visualization observer readout
Local Sidereal Time
21:37:03
Azimuth
Unknown
Elevation
Unknown
Doppler factor
Unknown
Orbital elements
Apogee altitude
485.899 km
Perigee altitude
484.112 km
Semi-major axis
6,863.142 km
Eccentricity
0.00013
Inclination
43.0025°
RAAN
189.4587°
Arg. of periapsis
274.1465°
True anomaly
85.93868°
Mean anomaly
85.9238°
Eccentric anomaly
85.93124°
Mean motion
3.81732 °/min
Orbital period
94.31 mins
BSTAR
0.000008288
Loading maneuver chart data...
Computing Atmospheric mass density...
Loading historical data...
Loading historical data...
Loading historical data...
Loading historical data...
Loading historical data...
Loading historical data...
Loading historical data...

Documentation

Showing up to 5 results
|